Location: Unspecified
(41.1637°N, 24.2901°E)
Time: 12:37:00
(UTC+01:00)

ISS - Pass Details

Date: 05 December 2021
Orbit: 417 x 423 km, 51.6° (Epoch: 29 November)

Event Time Altitude Azimuth Distance (km) Brightness Sun altitude
Rises 17:13:57 0° 308° (NW) 2,379 0.6 -14.6°
Reaches altitude 10° 17:16:06 10° 314° (NW) 1,511 -0.6 -15.0°
Maximum altitude 17:19:24 50° 31° (NNE) 548 -3.5 -15.6°
Enters shadow 17:20:19 37° 80° (E) 669 -3.3 -15.8°
